Weather in Incheon

South Korea     37°27′49″N   126°40′09″E
temp.,
°C
wind,
m/s
gust,
m/s
humid.,
%
clouds,
%
prec.,
mm/h
press.,
hPa
HPBL,
m
21 june, mon
mon2100:00+19wsw128677 0.2 1002157
03:00+19wsw008818 0.2 100270
06:00+19wsw0183100 0.0 100361
09:00+23w126029 0.0 1004476
12:00+25wsw44483 0.0 10041054
15:00+26wsw55460 0.0 1004729
18:00+24w46510 0.0 1004404
21:00+22wsw34602 0.0 1006211
22 june, tue
tue2200:00+21wsw22687 0.0 1007110
03:00+21n236998 0.1 1007182
06:00+20ne127191 0.0 1008201
09:00+23ene22573 0.0 1008654
12:00+28w224161 0.0 10081394
15:00+26w544731 0.0 10071003
18:00+24w575193 0.3 1007431
21:00+23nnw346152 0.4 1008400
23 june, wed
wed2300:00+21nne127442 1.1 100981
03:00+21e1278100 2.5 1009209
06:00+19e238331 0.4 1010216
09:00+22e226864 0.4 1010594
12:00+23n216152 0.6 1010737
15:00+26wnw43497 0.6 10091389
18:00+24wnw335535 0.3 1009811
21:00+22wnw116810 1.3 101086
24 june, thu
thu2400:00+21s22740 0.1 1010135
03:00+20s11741 0.2 1010112
06:00+20sse127174 0.0 101197
09:00+23s1161100 0.0 1011735
12:00+26wsw325138 0.0 10101426
15:00+25w54559 0.0 1009822
18:00+23w44630 0.0 1009598
21:00+22w22723 0.0 1010256
25 june, fri
fri2500:00+21wsw237710 0.0 1010224
03:00+20w2282100 0.0 1011204
06:00+20nnw008241 0.0 1011153
09:00+24sw11630 0.0 1011659
12:00+26w325314 0.0 10101278
15:00+26w54542 0.0 1009741
18:00+25w44563 0.0 1009642
21:00+22w34670 0.0 1010218